TimeEST,TemperatureF,Dew PointF,Humidity,Sea Level PressureIn,VisibilityMPH,Wind Direction,Wind SpeedMPH,Gust SpeedMPH,PrecipitationIn,Events,Conditions,WindDirDegrees,DateUTC
12:14 AM,30.6,29.1,94,29.32,1.2,NNE,17.3,23.0,N/A,Snow,Light Snow,20,2012-12-21 05:14:00
12:35 AM,30.6,28.9,94,29.33,1.8,NNE,11.5,20.7,N/A,Snow,Light Snow,30,2012-12-21 05:35:00
12:55 AM,30.6,29.1,94,29.33,1.2,NNE,18.4,26.5,N/A,Snow,Light Snow,20,2012-12-21 05:55:00
1:15 AM,30.2,29.3,96,29.33,0.8,North,17.3,25.3,N/A,Snow,Snow,10,2012-12-21 06:15:00
1:34 AM,29.8,28.4,94,29.34,0.8,North,16.1,26.5,N/A,Snow,Snow,10,2012-12-21 06:34:00
1:55 AM,29.5,28.0,94,29.35,1.0,NNE,18.4,26.5,N/A,Snow,Light Snow,20,2012-12-21 06:55:00
2:14 AM,29.7,28.0,94,29.36,1.0,North,18.4,28.8,N/A,Snow,Light Snow,10,2012-12-21 07:14:00
2:34 AM,29.3,27.5,93,29.36,1.0,North,19.6,25.3,N/A,Snow,Light Snow,10,2012-12-21 07:34:00
2:55 AM,29.3,27.3,92,29.38,1.8,North,21.9,27.6,N/A,Snow,Light Snow,10,2012-12-21 07:55:00
3:15 AM,29.3,26.8,90,29.39,2.0,North,17.3,27.6,N/A,Snow,Light Snow,10,2012-12-21 08:15:00
3:34 AM,29.5,26.8,90,29.39,4.0,North,20.7,24.2,N/A,Snow,Light Snow,10,2012-12-21 08:34:00
3:55 AM,29.7,27.1,90,29.40,3.0,North,20.7,27.6,N/A,,Overcast,360,2012-12-21 08:55:00
4:14 AM,29.7,27.0,90,29.41,3.0,North,17.3,27.6,N/A,,Overcast,360,2012-12-21 09:14:00
4:35 AM,29.5,26.8,90,29.42,3.0,North,18.4,25.3,N/A,,Overcast,10,2012-12-21 09:35:00
4:54 AM,29.3,26.2,88,29.42,3.0,North,19.6,28.8,N/A,Snow,Light Snow,360,2012-12-21 09:54:00
5:10 AM,29.1,26.1,88,29.43,1.5,North,18.4,28.8,N/A,Snow,Light Snow,360,2012-12-21 10:10:00
5:35 AM,28.8,27.0,93,29.45,1.2,North,18.4,26.5,N/A,Snow,Light Snow,350,2012-12-21 10:35:00
5:55 AM,28.4,26.4,92,29.45,1.5,North,19.6,27.6,N/A,Snow,Light Snow,360,2012-12-21 10:55:00
6:14 AM,28.4,25.5,89,29.46,1.5,North,24.2,31.1,N/A,Snow,Light Snow,360,2012-12-21 11:14:00
6:35 AM,28.4,26.4,92,29.48,1.0,North,23.0,32.2,N/A,Snow,Snow,10,2012-12-21 11:35:00
6:54 AM,28.4,26.4,92,29.49,1.0,North,20.7,29.9,N/A,Snow,Snow,360,2012-12-21 11:54:00
7:14 AM,28.9,26.4,90,29.50,1.8,North,20.7,27.6,N/A,Snow,Light Snow,360,2012-12-21 12:14:00
7:31 AM,28.9,27.1,93,29.51,1.0,North,20.7,31.1,N/A,Snow,Light Snow,360,2012-12-21 12:31:00
7:55 AM,29.1,25.7,87,29.53,1.8,North,20.7,31.1,N/A,Snow,Light Snow,350,2012-12-21 12:55:00
8:14 AM,29.3,25.7,86,29.54,1.5,North,23.0,34.5,N/A,Snow,Light Snow,360,2012-12-21 13:14:00
8:35 AM,28.9,26.4,90,29.56,-9999.0,North,23.0,34.5,N/A,,Unknown,350,2012-12-21 13:35:00
8:55 AM,29.1,27.1,92,29.57,-9999.0,North,20.7,31.1,N/A,,Unknown,360,2012-12-21 13:55:00
9:15 AM,29.3,26.6,90,29.58,-9999.0,North,21.9,36.8,N/A,,Unknown,360,2012-12-21 14:15:00
9:34 AM,29.5,26.8,90,29.59,-9999.0,North,27.6,35.7,N/A,,Unknown,350,2012-12-21 14:34:00
9:55 AM,30.4,26.8,86,29.62,-9999.0,North,19.6,38.0,N/A,,Unknown,350,2012-12-21 14:55:00
10:15 AM,30.7,26.2,83,29.62,-9999.0,North,21.9,34.5,N/A,,Overcast,360,2012-12-21 15:15:00
10:35 AM,31.5,26.6,82,29.64,-9999.0,North,25.3,36.8,N/A,,Overcast,350,2012-12-21 15:35:00
10:55 AM,31.3,26.2,82,29.65,-9999.0,North,21.9,33.4,N/A,,Overcast,350,2012-12-21 15:55:00
11:15 AM,31.6,27.0,83,29.66,-9999.0,North,23.0,33.4,N/A,,Unknown,350,2012-12-21 16:15:00
11:20 AM,31.5,26.6,82,29.66,-9999.0,NNW,25.3,36.8,N/A,,Overcast,340,2012-12-21 16:20:00
12:00 PM,30.2,26.6,86,29.67,-9999.0,North,20.7,32.2,N/A,,Overcast,350,2012-12-21 17:00:00
12:21 PM,32.0,26.6,80,29.68,-9999.0,North,20.7,35.7,N/A,,Overcast,350,2012-12-21 17:21:00
12:36 PM,32.0,26.6,80,29.68,-9999.0,NNW,21.9,34.5,N/A,,Unknown,340,2012-12-21 17:36:00
12:58 PM,30.2,26.6,86,29.69,-9999.0,NNW,23.0,29.9,N/A,,Overcast,340,2012-12-21 17:58:00
1:40 PM,32.0,26.6,80,29.71,5.0,NNW,20.7,33.4,N/A,,Haze,340,2012-12-21 18:40:00
1:57 PM,32.0,26.6,80,29.72,4.0,North,20.7,35.7,N/A,,Haze,350,2012-12-21 18:57:00
2:17 PM,30.2,26.6,86,29.72,4.0,NNW,24.2,35.7,N/A,,Haze,340,2012-12-21 19:17:00
2:57 PM,30.2,24.8,80,29.74,4.0,North,26.5,34.5,N/A,,Haze,350,2012-12-21 19:57:00
3:37 PM,32.0,26.6,80,29.78,4.0,NNW,24.2,32.2,N/A,,Haze,340,2012-12-21 20:37:00
3:58 PM,32.0,26.6,80,29.79,4.0,NNW,24.2,36.8,N/A,,Haze,340,2012-12-21 20:58:00
4:17 PM,32.0,24.8,75,29.80,2.5,NNW,27.6,36.8,N/A,,Haze,340,2012-12-21 21:17:00
4:38 PM,32.0,24.8,75,29.82,3.0,NNW,25.3,33.4,N/A,,Haze,340,2012-12-21 21:38:00
5:19 PM,32.0,24.8,75,29.85,4.0,NNW,26.5,34.5,N/A,,Haze,340,2012-12-21 22:19:00
5:38 PM,32.0,24.8,75,29.87,5.0,North,25.3,34.5,N/A,,Haze,350,2012-12-21 22:38:00
6:21 PM,32.0,24.8,75,29.88,5.0,North,28.8,36.8,N/A,,Haze,350,2012-12-21 23:21:00
6:38 PM,32.0,24.8,75,29.90,5.0,North,26.5,38.0,N/A,,Haze,350,2012-12-21 23:38:00
7:02 PM,32.0,24.8,75,29.91,7.0,North,26.5,34.5,N/A,,Overcast,350,2012-12-22 00:02:00
7:19 PM,-9999,-9999,N/A,-9999,-9999.0,North,-9999.0,-,N/A,,Unknown,0,2012-12-22 00:19:00
7:53 PM,32.0,24.8,75,29.93,7.0,NNW,20.7,32.2,N/A,,Overcast,340,2012-12-22 00:53:00
8:01 PM,32.0,24.8,75,29.93,10.0,NNW,23.0,34.5,N/A,,Overcast,340,2012-12-22 01:01:00
8:31 PM,32.0,24.8,75,29.94,10.0,NNW,21.9,33.4,N/A,,Overcast,340,2012-12-22 01:31:00
9:00 PM,30.2,24.8,80,29.95,10.0,NNW,18.4,31.1,N/A,,Overcast,340,2012-12-22 02:00:00
9:26 PM,30.2,23.0,75,29.95,10.0,NNW,19.6,32.2,N/A,,Overcast,340,2012-12-22 02:26:00
9:40 PM,30.2,23.0,75,29.96,10.0,NNW,23.0,32.2,N/A,,Overcast,330,2012-12-22 02:40:00
10:06 PM,30.2,23.0,75,29.96,10.0,NNW,19.6,28.8,N/A,,Overcast,340,2012-12-22 03:06:00
10:21 PM,30.2,23.0,75,29.95,10.0,NW,18.4,28.8,N/A,,Overcast,320,2012-12-22 03:21:00
11:03 PM,30.2,21.2,69,29.97,10.0,NW,20.7,32.2,N/A,,Overcast,320,2012-12-22 04:03:00
11:24 PM,30.2,23.0,75,29.97,10.0,NNW,20.7,34.5,N/A,,Overcast,330,2012-12-22 04:24:00
11:38 PM,28.4,21.2,74,29.97,10.0,NNW,20.7,31.1,N/A,,Overcast,330,2012-12-22 04:38:00